Regional Weather Roundup
Issued by NWS Jackson, KY

Home | Current Version | Previous Version | Text Only | Print | Product List | Glossary On
Versions: 1 2 3 4 5 6 7 8 9 10 11 12 13 14 15 16 17 18 19 20 21 22 23 24 25 26 27 28 29 30 31 32 33 34 35 36 37 38 39 40 41 42 43 44 45 46 47 48 49 50
000
ASUS43 KJKL 022110
RWRJKL

EAST KENTUCKY HOURLY WEATHER ROUNDUP
NATIONAL WEATHER SERVICE JACKSON KY
500 PM EDT WED SEP 02 2015

NOTE: "FAIR" INDICATES FEW OR NO CLOUDS BELOW 12,000 FEET WITH
NO SIGNIFICANT WEATHER AND/OR OBSTRUCTIONS TO VISIBILITY.

* THESE REPORTS ARE NOT UNDER NWS QUALITY CONTROL AND MAY NOT
  REPORT WEATHER SUCH AS PRECIPITATION AND FOG.

KYZ079-080-083-085-087-088-110-112-115-119-120-022200
...EASTERN KENTUCKY...

CITY           SKY/WX    TMP DP  RH WIND       PRES   REMARKS
JACKSON          N/A     87  64  46 NW3       30.07F
LONDON           N/A     87  62  43 E5        30.06F
SOMERSET*        N/A     86  61  42 W3        30.06F
MONTICELLO*      N/A     92  64  39 CALM      30.08F HX  93
WILLIAMSBURG*  MOSUNNY   86  64  48 N3        30.06
MIDDLESBORO*     N/A     88  65  46 N6        30.06F
HARLAN APT*      N/A     86  57  37 MISG      30.07F
BLACK MTN*       N/A     73  63  68 VRB6        N/A
PIKEVILLE APT* SUNNY     86  64  48 NW3       30.07F
BIG SANDY*       N/A     88  65  47 W6        30.06F
MOREHEAD APT*  CLOUDY    88  64  45 CALM      30.07F
$$

KYZ035-036-041-042-044-050-067-078-099-022200
...CENTRAL KENTUCKY...

CITY           SKY/WX    TMP DP  RH WIND       PRES   REMARKS
MT STERLING*     N/A     88  66  48 CALM      30.06F HX  90
FLEMING/MASON* PTSUNNY   86  68  54 CALM      30.06F
DANVILLE*        N/A     88  63  42 CALM      30.07F
RICHMOND*        N/A     88  63  42 N5        30.06F
LEXINGTON        N/A     89  64  43 NW6       30.06F HX  90
FRANKFORT        N/A     90  64  42 CALM      30.04F HX  91
$$

KYZ091>093-OHZ055-061-077-WVZ005-015-034-035-042-022200
...SOUTHERN OHIO/WEST VIRGINIA...

CITY           SKY/WX    TMP DP  RH WIND       PRES   REMARKS
COVINGTON        N/A     89  67  47 W5        30.04F HX  92
COLUMBUS       LGT RAIN  74  68  81 SW6       30.03F
DAYTON           N/A     82  67  60 S14       30.05F
WILMINGTON       N/A     77  69  76 CALM      30.06S
HUNTINGTON       N/A     84  67  56 NW6       30.04F
CHARLESTON       N/A     89  63  41 NW7       30.02F HX  90
PINEVILLE*       N/A     78  71  80 MISG      30.13S
BECKLEY          N/A     83  60  45 W10       30.12F
BLUEFIELD        N/A     83  59  44 N7        30.14F
$$

VAZ002-007-008-TNZ017-027-036-066-071-022200
...SOUTHWEST VIRGINIA/EAST TENNESSEE...

CITY           SKY/WX    TMP DP  RH WIND       PRES   REMARKS
WISE*            N/A     82  57  42 NW5       30.15F
JONESVILLE*      N/A     88  64  45 NW6       30.08F
ABINGDON*      PTSUNNY   87  59  39 NW6       30.09F
BRISTOL        PTSUNNY   88  66  48 N8        30.06F HX  90
OAK RIDGE        N/A     91  66  43 NW5       30.05F HX  93
CROSSVILLE     CLOUDY    84  63  49 N3        30.11F
NASHVILLE      PTSUNNY   90  63  40 SE3       30.03F HX  91
$$

...KEY TO REMARKS...
VSB - VISIBILITY IN MILES
WCI - WIND CHILL INDEX
HX  - HEAT INDEX

$$



USA.gov is the U.S. government's official web portal to all federal, state and local government web resources and services.